Time,TemperatureF,DewpointF,PressureIn,WindDirection,WindDirectionDegrees,WindSpeedMPH,WindSpeedGustMPH,Humidity,HourlyPrecipIn,Conditions,Clouds,dailyrainin,SolarRadiationWatts/m^2,SoftwareType,DateUTC
2013-04-22 00:02:00,42.0,31.0,-100.00,West,278,1.0,17.0,65,0.00,,,0.00,0.000000,,2013-04-22 06:02:00,
2013-04-22 00:12:00,42.0,31.0,-100.00,West,278,1.0,17.0,65,0.00,,,0.00,0.000000,,2013-04-22 06:12:00,
2013-04-22 00:21:00,42.0,31.0,-100.00,West,278,1.0,17.0,65,0.00,,,0.00,0.000000,,2013-04-22 06:21:00,
2013-04-22 00:32:00,42.0,31.0,-100.00,West,278,1.0,17.0,65,0.00,,,0.00,0.000000,,2013-04-22 06:32:00,
2013-04-22 00:41:00,42.0,31.0,-100.00,West,278,1.0,17.0,65,0.00,,,0.00,0.000000,,2013-04-22 06:41:00,
2013-04-22 00:42:00,39.0,31.0,-100.00,ENE,73,7.0,14.0,73,0.00,,,0.00,0.000000,,2013-04-22 06:42:00,
2013-04-22 01:01:00,39.0,31.0,-100.00,ENE,73,7.0,14.0,73,0.00,,,0.00,0.000000,,2013-04-22 07:01:00,
2013-04-22 01:11:00,39.0,31.0,-100.00,ENE,73,7.0,14.0,73,0.00,,,0.00,0.000000,,2013-04-22 07:11:00,
2013-04-22 01:21:00,39.0,31.0,-100.00,ENE,73,7.0,14.0,73,0.00,,,0.00,0.000000,,2013-04-22 07:21:00,
2013-04-22 01:32:00,39.0,31.0,-100.00,ENE,73,7.0,14.0,73,0.00,,,0.00,0.000000,,2013-04-22 07:32:00,
2013-04-22 02:01:00,37.0,30.0,-100.00,ENE,61,7.0,16.0,75,0.00,,,0.00,0.000000,,2013-04-22 08:01:00,
2013-04-22 02:11:00,37.0,30.0,-100.00,ENE,61,7.0,16.0,75,0.00,,,0.00,0.000000,,2013-04-22 08:11:00,
2013-04-22 02:22:00,37.0,30.0,-100.00,ENE,61,7.0,16.0,75,0.00,,,0.00,0.000000,,2013-04-22 08:22:00,
2013-04-22 02:32:00,37.0,30.0,-100.00,ENE,61,7.0,16.0,75,0.00,,,0.00,0.000000,,2013-04-22 08:32:00,
2013-04-22 02:41:00,37.0,30.0,-100.00,ENE,61,7.0,16.0,75,0.00,,,0.00,0.000000,,2013-04-22 08:41:00,
2013-04-22 02:42:00,37.0,28.0,-100.00,WSW,242,2.0,18.0,71,0.00,,,0.00,0.000000,,2013-04-22 08:42:00,
2013-04-22 03:01:00,37.0,28.0,-100.00,WSW,242,2.0,18.0,71,0.00,,,0.00,0.000000,,2013-04-22 09:01:00,
2013-04-22 03:11:00,37.0,28.0,-100.00,WSW,242,2.0,18.0,71,0.00,,,0.00,0.000000,,2013-04-22 09:11:00,
2013-04-22 03:21:00,37.0,28.0,-100.00,WSW,242,2.0,18.0,71,0.00,,,0.00,0.000000,,2013-04-22 09:21:00,
2013-04-22 03:33:00,37.0,28.0,-100.00,WSW,242,2.0,18.0,71,0.00,,,0.00,0.000000,,2013-04-22 09:33:00,
2013-04-22 03:42:00,36.0,28.0,-100.00,NNW,344,4.0,8.0,73,0.00,,,0.00,0.000000,,2013-04-22 09:42:00,
2013-04-22 04:03:00,36.0,28.0,-100.00,NNW,344,4.0,8.0,73,0.00,,,0.00,0.000000,,2013-04-22 10:03:00,
2013-04-22 04:12:00,36.0,28.0,-100.00,NNW,344,4.0,8.0,73,0.00,,,0.00,0.000000,,2013-04-22 10:12:00,
2013-04-22 04:22:00,36.0,28.0,-100.00,NNW,344,4.0,8.0,73,0.00,,,0.00,0.000000,,2013-04-22 10:22:00,
2013-04-22 04:32:00,36.0,28.0,-100.00,NNW,344,4.0,8.0,73,0.00,,,0.00,0.000000,,2013-04-22 10:32:00,
2013-04-22 04:42:00,36.0,29.0,-100.00,North,356,3.0,6.0,76,0.00,,,0.00,0.000000,,2013-04-22 10:42:00,
2013-04-22 05:02:00,36.0,29.0,-100.00,North,356,3.0,6.0,76,0.00,,,0.00,0.000000,,2013-04-22 11:02:00,
2013-04-22 05:12:00,36.0,29.0,-100.00,North,356,3.0,6.0,76,0.00,,,0.00,0.000000,,2013-04-22 11:12:00,
2013-04-22 05:22:00,36.0,29.0,-100.00,North,356,3.0,6.0,76,0.00,,,0.00,0.000000,,2013-04-22 11:22:00,
2013-04-22 05:32:00,36.0,29.0,-100.00,North,356,3.0,6.0,76,0.00,,,0.00,0.000000,,2013-04-22 11:32:00,
2013-04-22 05:42:00,33.0,27.0,-100.00,NE,43,1.0,5.0,79,0.00,,,0.00,0.000000,,2013-04-22 11:42:00,
2013-04-22 06:01:00,33.0,27.0,-100.00,NE,43,1.0,5.0,79,0.00,,,0.00,0.000000,,2013-04-22 12:01:00,
2013-04-22 06:12:00,33.0,27.0,-100.00,NE,43,1.0,5.0,79,0.00,,,0.00,0.000000,,2013-04-22 12:12:00,
2013-04-22 06:21:00,33.0,27.0,-100.00,NE,43,1.0,5.0,79,0.00,,,0.00,0.000000,,2013-04-22 12:21:00,
2013-04-22 06:31:00,33.0,27.0,-100.00,NE,43,1.0,5.0,79,0.00,,,0.00,0.000000,,2013-04-22 12:31:00,
2013-04-22 07:01:00,33.0,27.0,-100.00,NNW,329,2.0,7.0,77,0.00,,,-99.99,0.000000,,2013-04-22 13:01:00,
2013-04-22 07:11:00,33.0,27.0,-100.00,NNW,329,2.0,7.0,77,0.00,,,-99.99,0.000000,,2013-04-22 13:11:00,
2013-04-22 07:22:00,33.0,27.0,-100.00,NNW,329,2.0,7.0,77,0.00,,,-99.99,0.000000,,2013-04-22 13:22:00,
2013-04-22 07:31:00,33.0,27.0,-100.00,NNW,329,2.0,7.0,77,0.00,,,-99.99,0.000000,,2013-04-22 13:31:00,
2013-04-22 07:41:00,33.0,27.0,-100.00,NNW,329,2.0,7.0,77,0.00,,,-99.99,0.000000,,2013-04-22 13:41:00,
2013-04-22 07:42:00,35.0,23.0,-100.00,SSW,208,3.0,19.0,62,0.00,,,0.00,24.000000,,2013-04-22 13:42:00,
2013-04-22 08:02:00,35.0,23.0,-100.00,SSW,208,3.0,19.0,62,0.00,,,0.00,24.000000,,2013-04-22 14:02:00,
2013-04-22 08:11:00,35.0,23.0,-100.00,SSW,208,3.0,19.0,62,0.00,,,0.00,24.000000,,2013-04-22 14:11:00,
2013-04-22 08:21:00,35.0,23.0,-100.00,SSW,208,3.0,19.0,62,0.00,,,0.00,24.000000,,2013-04-22 14:21:00,
2013-04-22 08:33:00,35.0,23.0,-100.00,SSW,208,3.0,19.0,62,0.00,,,0.00,24.000000,,2013-04-22 14:33:00,
2013-04-22 08:42:00,38.0,20.0,-100.00,NW,325,8.0,21.0,47,0.00,,,0.00,183.000000,,2013-04-22 14:42:00,
2013-04-22 09:01:00,38.0,20.0,-100.00,NW,325,8.0,21.0,47,0.00,,,0.00,183.000000,,2013-04-22 15:01:00,
2013-04-22 09:11:00,38.0,20.0,-100.00,NW,325,8.0,21.0,47,0.00,,,0.00,183.000000,,2013-04-22 15:11:00,
2013-04-22 09:22:00,38.0,20.0,-100.00,NW,325,8.0,21.0,47,0.00,,,0.00,183.000000,,2013-04-22 15:22:00,
2013-04-22 09:33:00,38.0,20.0,-100.00,NW,325,8.0,21.0,47,0.00,,,0.00,183.000000,,2013-04-22 15:33:00,
2013-04-22 10:02:00,40.0,19.0,-100.00,NW,323,8.0,20.0,43,0.00,,,0.00,368.000000,,2013-04-22 16:02:00,
2013-04-22 10:12:00,40.0,19.0,-100.00,NW,323,8.0,20.0,43,0.00,,,0.00,368.000000,,2013-04-22 16:12:00,
2013-04-22 10:23:00,40.0,19.0,-100.00,NW,323,8.0,20.0,43,0.00,,,0.00,368.000000,,2013-04-22 16:23:00,
2013-04-22 10:33:00,40.0,19.0,-100.00,NW,323,8.0,20.0,43,0.00,,,0.00,368.000000,,2013-04-22 16:33:00,
2013-04-22 10:41:00,40.0,19.0,-100.00,NW,323,8.0,20.0,43,0.00,,,0.00,368.000000,,2013-04-22 16:41:00,
2013-04-22 10:42:00,42.0,18.0,-100.00,NW,325,9.0,24.0,37,0.00,,,0.00,552.000000,,2013-04-22 16:42:00,
2013-04-22 11:02:00,42.0,18.0,-100.00,NW,325,9.0,24.0,37,0.00,,,0.00,552.000000,,2013-04-22 17:02:00,
2013-04-22 11:12:00,42.0,18.0,-100.00,NW,325,9.0,24.0,37,0.00,,,0.00,552.000000,,2013-04-22 17:12:00,
2013-04-22 11:22:00,42.0,18.0,-100.00,NW,325,9.0,24.0,37,0.00,,,0.00,552.000000,,2013-04-22 17:22:00,
2013-04-22 11:31:00,42.0,18.0,-100.00,NW,325,9.0,24.0,37,0.00,,,0.00,552.000000,,2013-04-22 17:31:00,
2013-04-22 11:42:00,44.0,17.0,-100.00,NNW,328,12.0,27.0,33,0.00,,,0.00,696.000000,,2013-04-22 17:42:00,
2013-04-22 12:01:00,44.0,17.0,-100.00,NNW,328,12.0,27.0,33,0.00,,,0.00,696.000000,,2013-04-22 18:01:00,
2013-04-22 12:12:00,44.0,17.0,-100.00,NNW,328,12.0,27.0,33,0.00,,,0.00,696.000000,,2013-04-22 18:12:00,
2013-04-22 12:21:00,44.0,17.0,-100.00,NNW,328,12.0,27.0,33,0.00,,,0.00,696.000000,,2013-04-22 18:21:00,
2013-04-22 12:32:00,44.0,17.0,-100.00,NNW,328,12.0,27.0,33,0.00,,,0.00,696.000000,,2013-04-22 18:32:00,
2013-04-22 12:42:00,45.0,14.0,-100.00,NNW,331,13.0,30.0,28,0.00,,,0.00,831.000000,,2013-04-22 18:42:00,
2013-04-22 13:01:00,45.0,14.0,-100.00,NNW,331,13.0,30.0,28,0.00,,,0.00,831.000000,,2013-04-22 19:01:00,
2013-04-22 13:11:00,45.0,14.0,-100.00,NNW,331,13.0,30.0,28,0.00,,,0.00,831.000000,,2013-04-22 19:11:00,
2013-04-22 13:21:00,45.0,14.0,-100.00,NNW,331,13.0,30.0,28,0.00,,,0.00,831.000000,,2013-04-22 19:21:00,
2013-04-22 13:32:00,45.0,14.0,-100.00,NNW,331,13.0,30.0,28,0.00,,,0.00,831.000000,,2013-04-22 19:32:00,
2013-04-22 14:02:00,46.0,11.0,-100.00,NNW,332,15.0,28.0,24,0.00,,,0.00,903.000000,,2013-04-22 20:02:00,
2013-04-22 14:11:00,46.0,11.0,-100.00,NNW,332,15.0,28.0,24,0.00,,,0.00,903.000000,,2013-04-22 20:11:00,
2013-04-22 14:22:00,46.0,11.0,-100.00,NNW,332,15.0,28.0,24,0.00,,,0.00,903.000000,,2013-04-22 20:22:00,
2013-04-22 14:32:00,46.0,11.0,-100.00,NNW,332,15.0,28.0,24,0.00,,,0.00,903.000000,,2013-04-22 20:32:00,
2013-04-22 14:41:00,46.0,11.0,-100.00,NNW,332,15.0,28.0,24,0.00,,,0.00,903.000000,,2013-04-22 20:41:00,
2013-04-22 14:42:00,47.0,11.0,-100.00,NW,324,18.0,30.0,23,0.00,,,0.00,912.000000,,2013-04-22 20:42:00,
2013-04-22 15:02:00,47.0,11.0,-100.00,NW,324,18.0,30.0,23,0.00,,,0.00,912.000000,,2013-04-22 21:02:00,
2013-04-22 15:11:00,47.0,11.0,-100.00,NW,324,18.0,30.0,23,0.00,,,0.00,912.000000,,2013-04-22 21:11:00,
2013-04-22 15:21:00,47.0,11.0,-100.00,NW,324,18.0,30.0,23,0.00,,,0.00,912.000000,,2013-04-22 21:21:00,
2013-04-22 15:32:00,47.0,11.0,-100.00,NW,324,18.0,30.0,23,0.00,,,0.00,912.000000,,2013-04-22 21:32:00,
2013-04-22 15:42:00,48.0,13.0,-100.00,NW,317,9.0,35.0,24,0.00,,,-99.99,875.000000,,2013-04-22 21:42:00,
2013-04-22 16:02:00,48.0,13.0,-100.00,NW,317,9.0,35.0,24,0.00,,,-99.99,875.000000,,2013-04-22 22:02:00,
2013-04-22 16:12:00,48.0,13.0,-100.00,NW,317,9.0,35.0,24,0.00,,,-99.99,875.000000,,2013-04-22 22:12:00,
2013-04-22 16:22:00,48.0,13.0,-100.00,NW,317,9.0,35.0,24,0.00,,,-99.99,875.000000,,2013-04-22 22:22:00,
2013-04-22 16:33:00,48.0,13.0,-100.00,NW,317,9.0,35.0,24,0.00,,,-99.99,875.000000,,2013-04-22 22:33:00,
2013-04-22 16:42:00,49.0,16.0,-100.00,NW,325,12.0,31.0,26,0.00,,,0.00,780.000000,,2013-04-22 22:42:00,
2013-04-22 17:02:00,49.0,16.0,-100.00,NW,325,12.0,31.0,26,0.00,,,0.00,780.000000,,2013-04-22 23:02:00,
2013-04-22 17:11:00,49.0,16.0,-100.00,NW,325,12.0,31.0,26,0.00,,,0.00,780.000000,,2013-04-22 23:11:00,
2013-04-22 17:21:00,49.0,16.0,-100.00,NW,325,12.0,31.0,26,0.00,,,0.00,780.000000,,2013-04-22 23:21:00,
2013-04-22 17:32:00,49.0,16.0,-100.00,NW,325,12.0,31.0,26,0.00,,,0.00,780.000000,,2013-04-22 23:32:00,
2013-04-22 17:42:00,48.0,15.0,-100.00,NW,325,11.0,28.0,26,0.00,,,0.00,638.000000,,2013-04-22 23:42:00,
2013-04-22 18:02:00,48.0,15.0,-100.00,NW,325,11.0,28.0,26,0.00,,,0.00,638.000000,,2013-04-23 00:02:00,
2013-04-22 18:12:00,48.0,15.0,-100.00,NW,325,11.0,28.0,26,0.00,,,0.00,638.000000,,2013-04-23 00:12:00,
2013-04-22 18:21:00,48.0,15.0,-100.00,NW,325,11.0,28.0,26,0.00,,,0.00,638.000000,,2013-04-23 00:21:00,
2013-04-22 18:31:00,48.0,15.0,-100.00,NW,325,11.0,28.0,26,0.00,,,0.00,638.000000,,2013-04-23 00:31:00,
2013-04-22 18:42:00,46.0,13.0,-100.00,NW,319,13.0,28.0,26,0.00,,,0.00,461.000000,,2013-04-23 00:42:00,
2013-04-22 19:01:00,46.0,13.0,-100.00,NW,319,13.0,28.0,26,0.00,,,0.00,461.000000,,2013-04-23 01:01:00,
2013-04-22 19:11:00,46.0,13.0,-100.00,NW,319,13.0,28.0,26,0.00,,,0.00,461.000000,,2013-04-23 01:11:00,
2013-04-22 19:21:00,46.0,13.0,-100.00,NW,319,13.0,28.0,26,0.00,,,0.00,461.000000,,2013-04-23 01:21:00,
2013-04-22 19:32:00,46.0,13.0,-100.00,NW,319,13.0,28.0,26,0.00,,,0.00,461.000000,,2013-04-23 01:32:00,
2013-04-22 19:42:00,45.0,14.0,-100.00,NNW,327,8.0,22.0,28,0.00,,,0.00,263.000000,,2013-04-23 01:42:00,
2013-04-22 20:01:00,45.0,14.0,-100.00,NNW,327,8.0,22.0,28,0.00,,,0.00,263.000000,,2013-04-23 02:01:00,
2013-04-22 20:12:00,45.0,14.0,-100.00,NNW,327,8.0,22.0,28,0.00,,,0.00,263.000000,,2013-04-23 02:12:00,
2013-04-22 20:21:00,45.0,14.0,-100.00,NNW,327,8.0,22.0,28,0.00,,,0.00,263.000000,,2013-04-23 02:21:00,
2013-04-22 20:32:00,45.0,14.0,-100.00,NNW,327,8.0,22.0,28,0.00,,,0.00,263.000000,,2013-04-23 02:32:00,
2013-04-22 20:42:00,40.0,14.0,-100.00,NW,325,9.0,19.0,34,0.00,,,0.00,73.000000,,2013-04-23 02:42:00,
2013-04-22 21:01:00,40.0,14.0,-100.00,NW,325,9.0,19.0,34,0.00,,,0.00,73.000000,,2013-04-23 03:01:00,
2013-04-22 21:11:00,40.0,14.0,-100.00,NW,325,9.0,19.0,34,0.00,,,0.00,73.000000,,2013-04-23 03:11:00,
2013-04-22 21:21:00,40.0,14.0,-100.00,NW,325,9.0,19.0,34,0.00,,,0.00,73.000000,,2013-04-23 03:21:00,
2013-04-22 21:33:00,40.0,14.0,-100.00,NW,325,9.0,19.0,34,0.00,,,0.00,73.000000,,2013-04-23 03:33:00,
2013-04-22 21:42:00,38.0,15.0,-100.00,NNW,332,7.0,16.0,39,0.00,,,0.00,1.000000,,2013-04-23 03:42:00,
2013-04-22 22:03:00,38.0,15.0,-100.00,NNW,332,7.0,16.0,39,0.00,,,0.00,1.000000,,2013-04-23 04:03:00,
2013-04-22 22:12:00,38.0,15.0,-100.00,NNW,332,7.0,16.0,39,0.00,,,0.00,1.000000,,2013-04-23 04:12:00,
2013-04-22 22:23:00,38.0,15.0,-100.00,NNW,332,7.0,16.0,39,0.00,,,0.00,1.000000,,2013-04-23 04:23:00,
2013-04-22 22:33:00,38.0,15.0,-100.00,NNW,332,7.0,16.0,39,0.00,,,0.00,1.000000,,2013-04-23 04:33:00,
2013-04-22 22:42:00,36.0,15.0,-100.00,NNW,343,3.0,12.0,42,0.00,,,0.00,0.000000,,2013-04-23 04:42:00,
2013-04-22 23:02:00,36.0,15.0,-100.00,NNW,343,3.0,12.0,42,0.00,,,0.00,0.000000,,2013-04-23 05:02:00,
2013-04-22 23:12:00,36.0,15.0,-100.00,NNW,343,3.0,12.0,42,0.00,,,0.00,0.000000,,2013-04-23 05:12:00,
2013-04-22 23:22:00,36.0,15.0,-100.00,NNW,343,3.0,12.0,42,0.00,,,0.00,0.000000,,2013-04-23 05:22:00,
2013-04-22 23:32:00,36.0,15.0,-100.00,NNW,343,3.0,12.0,42,0.00,,,0.00,0.000000,,2013-04-23 05:32:00,